20060409,000008,691179,33.817985,-118.624570,17.6,14.894,33.420,41.267,2119.93,0.0, NaN,14.976,14.911, NaN,24.723,   NaN,15.66,1017.31,80.57,15.04,327.3,327.6,5.1,5.3,251.7,252.1,4.7,4.9,NaN, NaN,13.0,289.0,325.8,1144540808,1144540807,2,0.3,000008,000007,289.0,33.817900,-118.624463,0.17,NaN,NaN,15.109, NaN,NaN,NaN, NaN, NaN,NaN
20060409,000038,691209,33.818003,-118.624566,18.0,14.894,33.434,41.283,2122.12,0.0, NaN,14.957,14.893, NaN,24.733,   NaN,15.65,1017.35,80.60,15.07,326.1,327.2,5.2,5.6,252.4,253.7,4.9,5.2,NaN, NaN,13.0,288.3,343.1,1144540838,1144540837,2,0.5,000038,000037,288.3,33.817915,-118.624465,0.30,NaN,NaN,15.109, NaN,NaN,NaN, NaN, NaN,NaN
20060409,000108,691240,33.818011,-118.624596,17.7,14.874,33.443,41.275,2118.99,0.0, NaN,14.943,14.880, NaN,24.746,   NaN,15.63,1017.30,80.33,15.07,328.8,328.9,5.5,5.9,253.5,253.7,5.1,5.5,NaN, NaN,12.0,283.0,225.3,1144540868,1144540867,2,0.5,000068,000067,283.0,33.817938,-118.624470,0.34,NaN,NaN,15.089, NaN,NaN,NaN, NaN, NaN,NaN
20060409,000138,691270,33.818040,-118.624621,18.1,14.863,33.447,41.268,2120.97,0.0, NaN,14.922,14.859, NaN,24.751,   NaN,15.61,1017.33,80.28,15.06,332.9,331.6,5.5,5.9,253.2,252.0,5.0,5.4,NaN, NaN,13.0,277.1,313.2,1144540898,1144540898,2,0.0,000098,000098,277.1,33.817968,-118.624486,0.47,NaN,NaN,15.078, NaN,NaN,NaN, NaN, NaN,NaN
20060409,000208,691300,33.818028,-118.624653,17.8,14.850,33.440,41.248,2117.24,0.0, NaN,14.905,14.842, NaN,24.748,   NaN,15.62,1017.33,80.19,15.06,337.2,335.3,5.5,5.7,251.6,249.6,5.1,5.4,NaN, NaN,14.0,267.5,222.4,1144540928,1144540927,2,0.7,000128,000127,267.5,33.817983,-118.624511,0.34,NaN,NaN,15.065, NaN,NaN,NaN, NaN, NaN,NaN
20060409,000238,691329,33.818011,-118.624668,17.8,14.871,33.423,41.248,2133.89,0.0, NaN,14.895,14.832, NaN,24.730,   NaN,15.66,1017.37,80.20,15.05,346.1,342.2,5.5,5.7,252.9,248.8,5.2,5.4,NaN, NaN,14.0,259.5,170.8,1144540958,1144540957,2,0.4,000158,000157,259.5,33.817990,-118.624511,0.36,NaN,NaN,15.086, NaN,NaN,NaN, NaN, NaN,NaN
20060409,000308,691359,33.817990,-118.624663,17.8,14.889,33.420,41.262,2135.38,0.0, NaN,14.891,14.831, NaN,24.724,   NaN,15.69,1017.37,80.47,15.05,355.0,350.1,5.4,5.5,254.7,249.5,5.1,5.2,NaN, NaN,14.0,255.5,172.3,1144540988,1144540987,2,0.0,000188,000187,255.5,33.817976,-118.624495,0.04,NaN,NaN,15.104, NaN,NaN,NaN, NaN, NaN,NaN
20060409,000338,691390,33.817935,-118.624680,17.8,14.910,33.418,41.279,2133.45,0.0, NaN,14.894,14.838, NaN,24.717,   NaN,15.72,1017.32,80.18,15.08,0.2,355.4,5.6,5.3,255.7,250.6,5.3,5.0,NaN, NaN,13.0,252.3,179.5,1144541018,1144541018,2,0.7,000218,000218,252.3,33.817940,-118.624520,0.40,NaN,NaN,15.125, NaN,NaN,NaN, NaN, NaN,NaN
20060409,000408,691420,33.817881,-118.624705,17.9,14.914,33.427,41.294,2129.85,0.0, NaN,14.900,14.842, NaN,24.724,   NaN,15.70,1017.30,80.32,15.11,4.2,358.9,6.0,5.7,256.7,251.0,5.6,5.3,NaN, NaN,12.0,248.0,146.8,1144541048,1144541047,2,0.3,000248,000247,248.0,33.817900,-118.624555,0.23,NaN,NaN,15.129, NaN,NaN,NaN, NaN, NaN,NaN
20060409,000438,691450,33.817800,-118.624706,17.7,14.914,33.430,41.297,2130.99,0.0, NaN,14.902,14.842, NaN,24.726,   NaN,15.72,1017.33,80.74,15.11,8.8,4.4,5.8,5.7,257.4,252.6,5.3,5.1,NaN, NaN,13.0,242.0,169.5,1144541078,1144541077,2,1.2,000278,000277,242.0,33.817843,-118.624561,0.17,NaN,NaN,15.129, NaN,NaN,NaN, NaN, NaN,NaN
20060409,000508,691480,33.817741,-118.624698,18.0,14.904,33.438,41.296,2127.99,0.0, NaN,14.901,14.842, NaN,24.734,   NaN,15.75,1017.30,81.16,15.17,12.5,9.7,5.6,5.4,255.8,252.7,5.0,4.9,NaN, NaN,14.0,235.8,292.8,1144541108,1144541107,2,0.3,000308,000307,235.8,33.817791,-118.624551,-0.13,NaN,NaN,15.119, NaN,NaN,NaN, NaN, NaN,NaN
20060409,000538,691509,33.817673,-118.624655,17.9,14.894,33.441,41.291,2129.66,0.0, NaN,14.901,14.846, NaN,24.740,   NaN,15.73,1017.29,81.28,15.18,18.9,15.8,5.7,5.3,255.9,252.7,5.3,4.9,NaN, NaN,14.0,228.5,288.4,1144541138,1144541137,2,0.6,000338,000337,228.5,33.817743,-118.624525,-0.20,NaN,NaN,15.109, NaN,NaN,NaN, NaN, NaN,398.000000
20060409,000608,691539,33.817573,-118.624593,17.7,14.894,33.434,41.283,2120.06,0.0, NaN,14.905,14.851, NaN,24.733,   NaN,15.66,1017.31,81.06,15.15,26.9,23.7,5.8,5.4,257.9,254.6,5.4,4.9,NaN, NaN,14.0,223.3,180.4,1144541168,1144541167,2,0.6,000368,000367,223.3,33.817651,-118.624475,0.21,NaN,NaN,15.109, NaN,NaN,NaN, NaN, NaN,NaN
20060409,000638,691570,33.817428,-118.624566,17.9,14.888,33.439,41.283,2122.22,0.0, NaN,14.906,14.852, NaN,24.739,   NaN,15.60,1017.30,80.75,15.14,32.5,29.3,5.8,5.3,261.0,257.9,5.3,4.7,NaN, NaN,14.0,227.5,164.3,1144541198,1144541197,2,1.6,000398,000397,227.5,33.817505,-118.624461,0.62,NaN,NaN,15.103, NaN,NaN,NaN, NaN, NaN,NaN
20060409,000708,691600,33.817263,-118.624603,17.9,14.882,33.439,41.277,2118.01,0.0, NaN,14.904,14.847, NaN,24.740,   NaN,15.64,1017.31,80.68,15.09,30.6,28.2,5.9,5.3,263.3,261.1,5.3,4.7,NaN, NaN,14.0,240.0,192.0,1144541228,1144541227,2,1.6,000428,000427,240.0,33.817308,-118.624485,0.84,NaN,NaN,15.097, NaN,NaN,NaN, NaN, NaN,NaN
20060409,000738,691630,33.817100,-118.624686,17.9,14.888,33.431,41.273,2118.21,0.0, NaN,14.898,14.840, NaN,24.732,   NaN,15.63,1017.32,81.11,15.11,17.9,16.5,6.0,5.5,259.8,258.4,5.3,4.8,NaN, NaN,13.0,250.6,193.5,1144541258,1144541257,2,1.5,000458,000457,250.6,33.817123,-118.624560,1.12,NaN,NaN,15.103, NaN,NaN,NaN, NaN, NaN,NaN
20060409,000808,691659,33.816980,-118.624821,17.9,14.878,33.441,41.276,2109.68,0.0, NaN,14.889,14.832, NaN,24.743,   NaN,15.70,1017.30,81.11,15.13,6.6,3.6,6.2,5.6,256.2,252.9,5.5,5.0,NaN, NaN,13.0,251.1,218.2,1144541288,1144541287,2,1.3,000488,000487,251.0,33.816998,-118.624685,1.03,NaN,NaN,15.093, NaN,NaN,NaN, NaN, NaN,NaN
20060409,000838,691689,33.816860,-118.624975,18.0,14.835,33.461,41.259,2104.23,0.0, NaN,14.877,14.817, NaN,24.767,   NaN,15.64,1017.32,80.47,15.08,5.1,0.5,6.4,6.0,255.6,250.4,5.7,5.3,NaN, NaN,13.0,244.3,235.7,1144541318,1144541317,2,1.0,000518,000517,244.0,33.816886,-118.624836,1.12,NaN,NaN,15.051, NaN,NaN,NaN, NaN, NaN,NaN
20060409,000908,691720,33.816706,-118.625145,18.0,14.822,33.449,41.233,2104.91,0.0, NaN,14.861,14.803, NaN,24.761,   NaN,15.64,1017.26,80.66,15.08,12.6,8.3,6.2,6.0,257.8,253.0,5.6,5.3,NaN, NaN,13.0,233.8,227.6,1144541348,1144541347,2,1.4,000548,000547,233.6,33.816758,-118.625003,1.25,NaN,NaN,15.038, NaN,NaN,NaN, NaN, NaN,NaN
20060409,000938,691750,33.816510,-118.625306,18.1,14.818,33.445,41.225,2101.42,0.0, NaN,14.850,14.792, NaN,24.759,   NaN,15.64,1017.26,80.78,15.12,22.9,19.4,6.4,6.0,261.8,258.0,5.7,5.3,NaN, NaN,13.0,234.6,210.7,1144541378,1144541377,2,2.0,000578,000577,234.6,33.816556,-118.625166,1.55,NaN,NaN,15.034, NaN,NaN,NaN, NaN, NaN,NaN
20060409,001008,691780,33.816308,-118.625465,18.0,14.801,33.443,41.207,2098.41,0.0, NaN,14.848,14.791, NaN,24.761,   NaN,15.62,1017.18,80.51,15.06,25.4,22.7,6.7,6.2,265.0,262.2,5.8,5.4,NaN, NaN,13.0,242.6,200.5,1144541408,1144541407,2,1.9,000608,000607,242.6,33.816343,-118.625330,1.56,NaN,NaN,15.017, NaN,NaN,NaN, NaN, NaN,NaN
20060409,001038,691810,33.816151,-118.625665,17.9,14.833,33.416,41.205,2103.35,0.0, NaN,14.857,14.805, NaN,24.732,   NaN,15.66,1017.23,80.66,15.12,18.7,16.8,6.4,6.2,263.6,261.6,5.4,5.2,NaN, NaN,13.0,245.0,249.5,1144541438,1144541437,2,1.7,000638,000637,245.0,33.816173,-118.625520,1.42,NaN,NaN,15.049, NaN,NaN,NaN, NaN, NaN,NaN
20060409,001108,691839,33.815968,-118.625873,17.9,14.916,33.381,41.242,2091.90,0.0, NaN,14.883,14.835, NaN,24.686,   NaN,15.72,1017.25,80.86,15.12,14.2,11.9,6.3,6.2,260.8,258.2,5.4,5.2,NaN, NaN,13.0,241.0,227.2,1144541468,1144541467,2,1.8,000668,000667,241.0,33.816003,-118.625723,1.66,NaN,NaN,15.131, NaN,NaN,NaN, NaN, NaN,NaN
20060409,001138,691869,33.815775,-118.626078,17.9,14.992,33.373,41.303,2088.27,0.0, NaN,14.916,14.871, NaN,24.664,   NaN,15.69,1017.26,80.70,15.11,17.5,14.1,6.7,6.3,261.9,258.0,5.7,5.3,NaN, NaN,14.0,239.1,219.1,1144541498,1144541497,2,2.2,000698,000697,239.1,33.815815,-118.625935,1.65,NaN,NaN,15.205, NaN,NaN,NaN, NaN, NaN,NaN
20060409,001208,691900,33.815566,-118.626288,18.0,15.044,33.385,41.366,2087.31,0.0, NaN,14.953,14.910, NaN,24.662,   NaN,15.66,1017.31,80.55,15.10,19.5,16.9,6.6,6.2,262.9,260.1,5.7,5.3,NaN, NaN,13.0,242.7,202.2,1144541528,1144541527,2,2.5,000728,000727,242.7,33.815600,-118.626145,1.79,NaN,NaN,15.257, NaN,NaN,NaN, NaN, NaN,NaN
20060409,001238,691930,33.815396,-118.626523,17.9,15.084,33.396,41.416,2080.70,0.0, NaN,14.987,14.947, NaN,24.662,   NaN,15.72,1017.26,80.95,15.10,16.2,14.6,6.3,5.9,261.6,259.9,5.3,4.9,NaN, NaN,13.0,244.3,244.9,1144541558,1144541557,2,2.0,000758,000757,244.3,33.815420,-118.626376,1.62,NaN,NaN,15.296, NaN,NaN,NaN, NaN, NaN,399.000000
20060409,001308,691960,33.815206,-118.626740,18.0,15.112,33.406,41.453,2073.19,0.0, NaN,15.020,14.981, NaN,24.664,   NaN,15.72,1017.20,80.95,15.11,14.8,12.4,6.2,5.9,261.4,258.7,5.2,4.8,NaN, NaN,13.0,241.5,225.7,1144541588,1144541587,2,1.7,000788,000787,241.5,33.815243,-118.626596,1.87,NaN,NaN,15.324, NaN,NaN,NaN, NaN, NaN,NaN
20060409,001338,691989,33.815016,-118.626963,17.9,15.144,33.405,41.482,2072.75,0.0, NaN,15.053,15.014, NaN,24.656,   NaN,15.76,1017.27,81.39,15.16,16.5,14.0,6.1,5.8,261.5,258.7,5.1,4.8,NaN, NaN,14.0,240.3,202.4,1144541618,1144541617,2,2.3,000818,000817,240.3,33.815051,-118.626820,1.73,NaN,NaN,15.355, NaN,NaN,NaN, NaN, NaN,NaN
20060409,001408,692019,33.814841,-118.627161,17.9,15.161,33.415,41.509,2076.69,0.0, NaN,15.079,15.040, NaN,24.660,   NaN,15.83,1017.29,82.02,15.20,15.6,15.3,5.7,5.5,259.7,259.6,4.8,4.5,NaN, NaN,14.0,243.0,227.9,1144541648,1144541647,2,1.4,000848,000847,243.0,33.814871,-118.627025,1.56,NaN,NaN,15.372, NaN,NaN,NaN, NaN, NaN,NaN
20060409,001438,692049,33.814680,-118.627311,18.1,15.175,33.419,41.528,2071.64,0.0, NaN,15.099,15.059, NaN,24.661,   NaN,15.85,1017.16,81.84,15.22,11.3,13.0,5.6,5.5,256.3,258.4,4.7,4.6,NaN, NaN,14.0,244.1,236.4,1144541678,1144541677,2,1.1,000878,000877,244.1,33.814705,-118.627166,1.18,NaN,NaN,15.386, NaN,NaN,NaN, NaN, NaN,NaN
20060409,001508,692080,33.814523,-118.627433,18.1,15.187,33.422,41.543,2069.60,0.0, NaN,15.119,15.080, NaN,24.661,   NaN,15.84,1017.21,81.93,15.24,13.4,12.6,5.8,5.5,258.4,257.7,4.9,4.6,NaN, NaN,14.0,237.8,199.5,1144541708,1144541707,2,1.8,000908,000907,237.8,33.814571,-118.627298,1.09,NaN,NaN,15.398, NaN,NaN,NaN, NaN, NaN,NaN
20060409,001538,692110,33.814373,-118.627550,18.1,15.202,33.423,41.558,2069.64,0.0, NaN,15.134,15.095, NaN,24.659,   NaN,15.80,1017.21,81.73,15.23,21.8,18.2,5.9,5.2,263.4,259.8,5.1,4.4,NaN, NaN,14.0,233.3,240.5,1144541738,1144541737,2,1.3,000938,000937,233.3,33.814420,-118.627403,0.95,NaN,NaN,15.412, NaN,NaN,NaN, NaN, NaN,NaN
20060409,001608,692140,33.814180,-118.627615,18.0,15.212,33.426,41.570,2064.27,0.0, NaN,15.149,15.108, NaN,24.659,   NaN,15.69,1017.29,81.10,15.19,25.3,21.0,6.2,5.2,263.0,258.8,5.4,4.4,NaN, NaN,14.0,233.0,182.7,1144541768,1144541767,2,2.1,000968,000967,233.0,33.814235,-118.627483,1.01,NaN,NaN,15.422, NaN,NaN,NaN, NaN, NaN,NaN
20060409,001638,692169,33.814030,-118.627703,17.9,15.219,33.428,41.578,2058.03,0.0, NaN,15.163,15.120, NaN,24.659,   NaN,15.68,1017.32,80.90,15.14,25.1,21.1,6.4,5.3,262.5,258.6,5.6,4.5,NaN, NaN,14.0,236.3,239.3,1144541798,1144541797,2,1.0,000998,000997,236.3,33.814068,-118.627558,0.84,NaN,NaN,15.429, NaN,NaN,NaN, NaN, NaN,NaN
20060409,001708,692199,33.813850,-118.627756,17.8,15.221,33.431,41.584,2058.06,0.0, NaN,15.171,15.129, NaN,24.661,   NaN,15.65,1017.24,80.89,15.14,24.6,21.3,6.4,5.5,264.7,261.6,5.6,4.7,NaN, NaN,15.0,241.5,194.7,1144541828,1144541827,2,1.8,001028,001027,241.5,33.813883,-118.627621,0.91,NaN,NaN,15.431, NaN,NaN,NaN, NaN, NaN,NaN
20060409,001738,692230,33.813713,-118.627835,17.9,15.224,33.432,41.588,2058.81,0.0, NaN,15.178,15.135, NaN,24.661,   NaN,15.67,1017.30,80.83,15.12,21.6,18.5,6.3,5.5,266.8,263.7,5.6,4.8,NaN, NaN,15.0,251.7,205.9,1144541858,1144541857,2,1.0,001058,001057,251.7,33.813720,-118.627688,0.85,NaN,NaN,15.434, NaN,NaN,NaN, NaN, NaN,NaN
20060409,001808,692260,33.813586,-118.627935,17.8,15.229,33.433,41.594,2052.63,0.0, NaN,15.184,15.141, NaN,24.660,   NaN,15.70,1017.30,80.93,15.13,15.1,12.6,6.0,5.5,267.5,264.8,5.4,4.9,NaN, NaN,14.0,257.0,222.5,1144541888,1144541887,2,1.1,001088,001087,257.0,33.813586,-118.627791,0.71,NaN,NaN,15.439, NaN,NaN,NaN, NaN, NaN,NaN
20060409,001838,692290,33.813481,-118.628058,18.0,15.234,33.433,41.599,2046.99,0.0, NaN,15.187,15.144, NaN,24.659,   NaN,15.71,1017.27,80.62,15.11,8.9,5.8,6.2,5.8,266.1,262.7,5.6,5.1,NaN, NaN,14.0,256.7,264.9,1144541918,1144541917,2,1.0,001118,001117,256.7,33.813473,-118.627915,0.78,NaN,NaN,15.444, NaN,NaN,NaN, NaN, NaN,NaN
20060409,001908,692320,33.813365,-118.628188,17.7,15.238,33.433,41.602,2045.11,0.0, NaN,15.191,15.148, NaN,24.658,   NaN,15.70,1017.25,80.54,15.12,9.3,6.2,6.5,6.0,266.0,262.6,5.8,5.4,NaN, NaN,13.0,251.0,222.6,1144541948,1144541947,2,1.4,001148,001147,250.5,33.813380,-118.628046,0.87,NaN,NaN,15.448, NaN,NaN,NaN, NaN, NaN,NaN
20060409,001938,692349,33.813238,-118.628326,17.8,15.241,33.434,41.606,2044.89,0.0, NaN,15.192,15.150, NaN,24.659,   NaN,15.71,1017.21,80.41,15.10,14.9,11.9,6.5,6.1,265.7,262.5,5.9,5.5,NaN, NaN,14.0,236.6,223.1,1144541978,1144541977,2,1.4,001178,001177,236.1,33.813288,-118.628190,1.06,NaN,NaN,15.451, NaN,NaN,NaN, NaN, NaN,NaN
20060409,002008,692379,33.813051,-118.628453,18.0,15.243,33.434,41.608,2038.83,0.0, NaN,15.200,15.155, NaN,24.658,   NaN,15.65,1017.25,80.15,15.06,23.5,20.6,6.6,5.9,264.3,261.6,5.9,5.2,NaN, NaN,14.0,229.0,196.8,1144542008,1144542007,2,2.1,001208,001207,229.0,33.813125,-118.628318,1.29,NaN,NaN,15.453, NaN,NaN,NaN, NaN, NaN,NaN
20060409,002038,692410,33.812850,-118.628561,18.1,15.242,33.437,41.610,2029.16,0.0, NaN,15.205,15.160, NaN,24.660,   NaN,15.70,1017.24,80.63,15.08,30.3,28.3,6.4,5.1,265.2,264.4,5.7,4.4,NaN, NaN,14.0,230.1,215.2,1144542038,1144542037,2,1.5,001238,001237,230.1,33.812916,-118.628421,1.36,NaN,NaN,15.452, NaN,NaN,NaN, NaN, NaN,NaN
20060409,002108,692440,33.812641,-118.628685,17.8,15.234,33.440,41.607,2025.46,0.0, NaN,15.204,15.160, NaN,24.665,   NaN,15.66,1017.28,80.66,15.14,28.3,26.6,6.3,5.1,264.0,263.5,5.5,4.3,NaN, NaN,14.0,237.6,216.7,1144542068,1144542067,2,1.9,001268,001267,237.6,33.812686,-118.628536,1.33,NaN,NaN,15.444, NaN,NaN,NaN, NaN, NaN,NaN
20060409,002138,692470,33.812466,-118.628776,18.1,15.224,33.442,41.600,2016.59,0.0, NaN,15.201,15.154, NaN,24.669,   NaN,15.72,1017.29,81.10,15.18,20.2,18.4,6.2,5.5,262.1,260.5,5.4,4.7,NaN, NaN,14.0,250.6,195.5,1144542098,1144542097,2,1.6,001298,001297,250.6,33.812510,-118.628610,0.93,NaN,NaN,15.434, NaN,NaN,NaN, NaN, NaN,NaN
20060409,002208,692499,33.812345,-118.628850,17.8,15.194,33.458,41.589,2004.23,0.0, NaN,15.191,15.143, NaN,24.688,   NaN,15.71,1017.25,80.61,15.13,10.0,8.3,5.9,5.8,261.3,259.5,5.2,5.1,NaN, NaN,14.0,259.6,195.9,1144542128,1144542127,2,1.6,001328,001327,259.6,33.812346,-118.628696,0.57,NaN,NaN,15.404, NaN,NaN,NaN, NaN, NaN,NaN
20060409,002238,692529,33.812261,-118.628901,17.9,15.143,33.468,41.555,1994.90,0.0, NaN,15.175,15.122, NaN,24.708,   NaN,15.72,1017.34,80.58,15.16,359.9,357.9,5.8,6.0,258.7,256.5,5.2,5.4,NaN, NaN,14.0,265.1,241.4,1144542158,1144542157,2,0.5,001358,001357,265.1,33.812243,-118.628758,0.24,NaN,NaN,15.354, NaN,NaN,NaN, NaN, NaN,NaN
20060409,002308,692559,33.812185,-118.628928,17.8,15.122,33.458,41.524,1993.13,0.0, NaN,15.157,15.105, NaN,24.704,   NaN,15.68,1017.27,80.22,15.12,353.0,350.1,5.5,5.9,256.9,253.8,5.0,5.4,NaN, NaN,14.0,269.0,154.8,1144542188,1144542187,2,0.4,001388,001387,269.0,33.812155,-118.628788,0.16,NaN,NaN,15.334, NaN,NaN,NaN, NaN, NaN,NaN
20060409,002338,692590,33.812121,-118.628946,17.7,15.116,33.446,41.504,1984.36,0.0, NaN,15.140,15.086, NaN,24.695,   NaN,15.68,1017.28,80.29,15.11,349.4,346.1,5.3,5.7,257.0,253.6,4.9,5.4,NaN, NaN,14.0,271.5,198.9,1144542218,1144542217,2,0.8,001418,001417,271.5,33.812086,-118.628810,0.18,NaN,NaN,15.328, NaN,NaN,NaN, NaN, NaN,NaN
20060409,002408,692620,33.812085,-118.628943,18.0,15.113,33.441,41.496,1976.48,0.0, NaN,15.128,15.077, NaN,24.693,   NaN,15.73,1017.31,80.48,15.17,345.2,343.2,5.1,5.5,254.8,252.8,4.7,5.1,NaN, NaN,14.0,273.0,147.0,1144542248,1144542247,2,0.5,001448,001447,273.0,33.812050,-118.628803,0.02,NaN,NaN,15.325, NaN,NaN,NaN, NaN, NaN,NaN
20060409,002438,692650,33.812058,-118.628931,18.1,15.106,33.440,41.488,1975.99,0.0, NaN,15.121,15.069, NaN,24.693,   NaN,15.73,1017.28,80.30,15.15,340.9,340.2,5.1,5.6,252.4,251.8,4.6,5.2,NaN, NaN,13.0,276.0,69.5,1144542278,1144542277,2,0.4,001478,001477,276.0,33.812008,-118.628798,-0.07,NaN,NaN,15.318, NaN,NaN,NaN, NaN, NaN,NaN
20060409,002508,692679,33.812036,-118.628950,17.9,15.107,33.436,41.483,1965.00,0.0, NaN,15.115,15.061, NaN,24.689,   NaN,15.69,1017.25,79.80,15.14,338.0,336.9,5.2,5.6,252.3,251.2,4.9,5.3,NaN, NaN,13.0,276.6,336.7,1144542308,1144542307,2,0.0,001508,001507,276.6,33.811996,-118.628823,0.37,NaN,NaN,15.319, NaN,NaN,NaN, NaN, NaN,NaN
20060409,002538,692709,33.812033,-118.629058,17.8,15.108,33.435,41.483,1976.90,0.0, NaN,15.111,15.056, NaN,24.688,   NaN,15.67,1017.32,79.92,15.09,338.2,337.0,5.3,5.7,251.6,250.5,5.0,5.4,NaN, NaN,13.0,270.0,271.6,1144542338,1144542337,2,0.7,001538,001537,270.0,33.812005,-118.628920,0.62,NaN,NaN,15.320, NaN,NaN,NaN, NaN, NaN,NaN
20060409,002608,692740,33.812010,-118.629185,17.9,15.109,33.435,41.484,1979.34,0.0, NaN,15.101,15.049, NaN,24.688,   NaN,15.66,1017.25,80.12,15.08,344.4,341.4,5.5,6.0,254.2,251.0,5.0,5.6,NaN, NaN,14.0,269.5,248.9,1144542368,1144542368,2,1.2,001568,001568,269.5,33.811978,-118.629050,0.70,NaN,NaN,15.321, NaN,NaN,NaN, NaN, NaN,NaN
20060409,002638,692770,33.812000,-118.629341,17.9,15.108,33.437,41.485,1971.90,0.0, NaN,15.095,15.044, NaN,24.690,   NaN,15.65,1017.25,80.20,15.08,347.6,343.7,5.6,6.3,256.6,252.5,5.1,5.7,NaN, NaN,14.0,273.0,266.7,1144542398,1144542397,2,0.7,001598,001597,273.0,33.811955,-118.629193,1.10,NaN,NaN,15.320, NaN,NaN,NaN, NaN, NaN,NaN
20060409,002708,692800,33.811976,-118.629516,17.9,15.106,33.436,41.482,1967.71,0.0, NaN,15.092,15.040, NaN,24.689,   NaN,15.65,1017.29,80.53,15.07,343.6,342.3,5.8,6.4,254.0,252.8,5.2,5.8,NaN, NaN,14.0,272.8,272.0,1144542428,1144542427,2,1.2,001628,001627,272.8,33.811935,-118.629370,1.18,NaN,NaN,15.318, NaN,NaN,NaN, NaN, NaN,NaN
20060409,002738,692830,33.811961,-118.629710,17.9,15.103,33.437,41.480,1962.35,0.0, NaN,15.085,15.037, NaN,24.691,   NaN,15.72,1017.29,81.01,15.13,344.8,343.5,5.6,6.3,255.7,254.4,5.0,5.7,NaN, NaN,14.0,270.5,273.1,1144542458,1144542457,2,1.1,001658,001657,270.5,33.811930,-118.629556,1.38,NaN,NaN,15.315, NaN,NaN,NaN, NaN, NaN,NaN
20060409,002808,692859,33.811925,-118.629903,17.8,15.097,33.440,41.479,1959.98,0.0, NaN,15.082,15.033, NaN,24.695,   NaN,15.70,1017.30,80.84,15.13,352.3,348.7,5.8,6.3,262.3,258.5,5.2,5.7,NaN, NaN,15.0,269.8,242.0,1144542488,1144542487,2,1.6,001688,001687,269.8,33.811891,-118.629761,1.19,NaN,NaN,15.309, NaN,NaN,NaN, NaN, NaN,400.000000
20060409,002838,692889,33.811900,-118.630130,18.0,15.092,33.440,41.474,1959.55,0.0, NaN,15.081,15.026, NaN,24.696,   NaN,15.66,1017.32,80.59,15.10,352.1,348.3,5.9,6.4,261.5,257.4,5.2,5.7,NaN, NaN,15.0,272.3,271.4,1144542518,1144542517,2,1.4,001718,001717,272.3,33.811861,-118.629980,1.41,NaN,NaN,15.304, NaN,NaN,NaN, NaN, NaN,NaN
20060409,002908,692920,33.811876,-118.630350,17.9,15.086,33.441,41.470,1948.88,0.0, NaN,15.077,15.019, NaN,24.698,   NaN,15.64,1017.33,80.29,15.05,346.3,344.1,5.8,6.4,256.3,254.1,5.1,5.7,NaN, NaN,14.0,273.0,266.9,1144542548,1144542547,2,1.6,001748,001747,273.0,33.811836,-118.630206,1.52,NaN,NaN,15.298, NaN,NaN,NaN, NaN, NaN,NaN
20060409,002938,692950,33.811855,-118.630560,18.0,15.077,33.442,41.462,1944.07,0.0, NaN,15.067,15.014, NaN,24.701,   NaN,15.61,1017.32,80.14,15.04,345.2,343.0,5.8,6.4,254.7,252.6,5.0,5.7,NaN, NaN,14.0,266.5,253.6,1144542578,1144542577,2,1.0,001778,001777,266.5,33.811831,-118.630406,1.34,NaN,NaN,15.289, NaN,NaN,NaN, NaN, NaN,NaN
20060409,003008,692980,33.811798,-118.630750,17.9,15.069,33.442,41.455,1954.22,0.0, NaN,15.057,15.003, NaN,24.703,   NaN,15.63,1017.28,80.21,15.03,351.7,348.4,6.0,6.4,254.9,251.3,5.3,5.7,NaN, NaN,14.0,249.3,252.7,1144542608,1144542607,2,1.0,001808,001807,248.6,33.811810,-118.630600,1.23,NaN,NaN,15.281, NaN,NaN,NaN, NaN, NaN,NaN
20060409,003038,693009,33.811683,-118.630900,17.9,15.061,33.440,41.446,1955.49,0.0, NaN,15.050,14.997, NaN,24.703,   NaN,15.64,1017.29,80.54,15.07,6.8,2.4,6.4,6.3,255.6,250.8,5.7,5.6,NaN, NaN,14.0,227.0,228.8,1144542638,1144542637,2,1.1,001838,001837,225.9,33.811753,-118.630760,0.95,NaN,NaN,15.273, NaN,NaN,NaN, NaN, NaN,NaN
20060409,003108,693039,33.811471,-118.630998,17.9,15.050,33.441,41.437,1953.76,0.0, NaN,15.044,14.990, NaN,24.706,   NaN,15.64,1017.28,80.36,15.09,25.9,20.9,6.3,5.7,257.1,252.1,5.6,5.0,NaN, NaN,14.0,213.5,183.1,1144542668,1144542667,2,2.4,001868,001867,213.5,33.811568,-118.630886,1.42,NaN,NaN,15.263, NaN,NaN,NaN, NaN, NaN,NaN
20060409,003138,693070,33.811200,-118.631111,18.0,15.040,33.441,41.427,1951.18,0.0, NaN,15.040,14.986, NaN,24.708,   NaN,15.61,1017.30,80.75,15.10,37.1,32.5,6.1,5.0,260.9,257.1,5.4,4.3,NaN, NaN,14.0,224.3,190.0,1144542698,1144542697,2,2.7,001898,001897,224.3,33.811270,-118.630981,1.99,NaN,NaN,15.253, NaN,NaN,NaN, NaN, NaN,NaN
20060409,003208,693100,33.810921,-118.631306,18.1,15.026,33.448,41.422,1946.88,0.0, NaN,15.028,14.974, NaN,24.717,   NaN,15.58,1017.24,80.96,15.09,33.2,30.1,6.3,5.4,261.9,259.7,5.4,4.5,NaN, NaN,14.0,223.4,234.4,1144542728,1144542727,2,2.3,001928,001927,223.4,33.810988,-118.631175,2.24,NaN,NaN,15.239, NaN,NaN,NaN, NaN, NaN,NaN
20060409,003238,693130,33.810545,-118.631553,17.9,14.991,33.456,41.397,1941.66,0.0, NaN,15.011,14.955, NaN,24.731,   NaN,15.56,1017.30,80.72,15.07,31.4,29.1,6.5,5.7,261.3,260.3,5.4,4.6,NaN, NaN,14.0,216.3,213.8,1144542758,1144542757,2,3.5,001958,001957,216.3,33.810625,-118.631420,2.88,NaN,NaN,15.204, NaN,NaN,NaN, NaN, NaN,NaN
20060409,003308,693160,33.810110,-118.631858,18.1,14.975,33.449,41.376,1932.97,0.0, NaN,14.996,14.939, NaN,24.728,   NaN,15.54,1017.17,80.53,15.05,35.7,32.2,6.6,5.3,264.7,264.2,5.3,4.0,NaN, NaN,16.0,219.2,201.9,1144542788,1144542787,2,3.9,001988,001987,219.2,33.810186,-118.631711,3.51,NaN,NaN,15.189, NaN,NaN,NaN, NaN, NaN,NaN
20060409,003338,693189,33.809650,-118.632171,18.0,14.960,33.446,41.358,1937.99,0.0, NaN,14.988,14.929, NaN,24.729,   NaN,15.54,1017.24,80.71,15.03,36.1,31.8,6.8,5.3,266.9,265.6,5.4,3.9,NaN, NaN,16.0,218.3,203.9,1144542818,1144542817,2,3.6,002018,002017,218.3,33.809733,-118.632026,3.58,NaN,NaN,15.174, NaN,NaN,NaN, NaN, NaN,401.000000
20060409,003408,693219,33.809236,-118.632441,18.1,14.962,33.433,41.345,1929.00,0.0, NaN,14.998,14.947, NaN,24.718,   NaN,15.54,1017.16,81.10,15.05,36.1,31.5,6.7,5.5,267.3,264.9,5.3,4.0,NaN, NaN,15.0,220.6,202.0,1144542848,1144542847,2,3.5,002048,002047,220.6,33.809313,-118.632288,3.08,NaN,NaN,15.176, NaN,NaN,NaN, NaN, NaN,NaN
20060409,003438,693250,33.808866,-118.632688,17.9,15.057,33.381,41.372,1927.76,0.0, NaN,15.018,14.971, NaN,24.656,   NaN,15.54,1017.18,81.25,15.04,37.0,31.6,6.3,5.2,269.0,265.6,5.1,3.8,NaN, NaN,15.0,220.3,214.3,1144542878,1144542877,2,2.9,002078,002077,220.3,33.808940,-118.632545,2.85,NaN,NaN,15.269, NaN,NaN,NaN, NaN, NaN,NaN
20060409,003508,693280,33.808496,-118.632896,18.0,15.092,33.397,41.425,1923.23,0.0, NaN,15.043,14.998, NaN,24.662,   NaN,15.55,1017.21,81.53,15.04,37.8,32.5,6.1,4.8,269.7,267.0,4.9,3.6,NaN, NaN,15.0,219.6,203.3,1144542908,1144542907,2,2.8,002108,002107,219.6,33.808575,-118.632758,2.66,NaN,NaN,15.304, NaN,NaN,NaN, NaN, NaN,NaN
20060409,003538,693310,33.808155,-118.633091,18.0,15.116,33.406,41.457,1921.16,0.0, NaN,15.068,15.022, NaN,24.664,   NaN,15.54,1017.12,81.62,15.07,36.9,31.6,6.1,4.9,267.5,264.4,5.0,3.7,NaN, NaN,14.0,219.6,203.9,1144542938,1144542937,2,2.9,002138,002137,219.6,33.808228,-118.632958,2.37,NaN,NaN,15.328, NaN,NaN,NaN, NaN, NaN,NaN